BJN099 EFHK-ENAT

Flight info

Callsign BJN099
Flight time 0h 37m
Altitude 40000
Route TEVRU Y75 USUPO DCT AMULU DCT BADIX
Aircraft B737/M-SDE2E3FGHIRWXY/LB1

Departure

Time 2026-04-16 22:20
Airport Helsinki Vantaa Airport (EFHK)

Arrival

Time 2026-04-16 22:58
Airport Alta Airport (ENAT)
Time Latitude Longitude Altitude Speed Heading
2026-04-16 22:02 60.30910 24.94272 163 ft 0 kts 150°
2026-04-16 22:10 60.30914 24.94268 163 ft 3 kts 150°
2026-04-16 22:10 60.30937 24.94240 162 ft 4 kts 148°
2026-04-16 22:11 60.30960 24.94213 162 ft 4 kts 156°
2026-04-16 22:11 60.30985 24.94193 161 ft 4 kts 158°
2026-04-16 22:11 60.31004 24.94179 161 ft 0 kts 164°
2026-04-16 22:14 60.31003 24.94179 161 ft 0 kts 167°
2026-04-16 22:15 60.31001 24.94172 161 ft 1 kts 220°
2026-04-16 22:15 60.30986 24.94115 161 ft 6 kts 252°
2026-04-16 22:15 60.31010 24.93991 158 ft 13 kts 307°
2026-04-16 22:15 60.31039 24.93865 158 ft 0 kts 291°
2026-04-16 22:18 60.31039 24.93864 158 ft 1 kts 291°
2026-04-16 22:18 60.31061 24.93796 158 ft 9 kts 311°
2026-04-16 22:18 60.31124 24.93719 156 ft 13 kts 354°
2026-04-16 22:18 60.31198 24.93787 158 ft 0 kts 49°
2026-04-16 22:19 60.31201 24.93792 158 ft 3 kts 49°
2026-04-16 22:20 60.31336 24.94090 160 ft 69 kts 47°
2026-04-16 22:20 60.31832 24.95179 175 ft 140 kts 49°
2026-04-16 22:20 60.32518 24.96817 694 ft 155 kts 48°
2026-04-16 22:20 60.33195 24.98415 1797 ft 147 kts 49°
2026-04-16 22:21 60.33961 25.00043 2443 ft 178 kts 49°
2026-04-16 22:21 60.34905 25.02060 2768 ft 215 kts 49°
2026-04-16 22:21 60.35998 25.04427 3253 ft 240 kts 49°
2026-04-16 22:21 60.37158 25.06967 3779 ft 247 kts 48°
2026-04-16 22:22 60.38323 25.09531 3992 ft 249 kts 48°
2026-04-16 22:22 60.39636 25.11860 4427 ft 257 kts 27°
2026-04-16 22:22 60.41333 25.12916 5734 ft 257 kts
2026-04-16 22:22 60.46115 25.13080 8443 ft 274 kts
2026-04-16 22:23 60.50304 25.13070 10706 ft 284 kts 354°
2026-04-16 22:23 60.52246 25.11792 11315 ft 307 kts 338°
2026-04-16 22:23 60.54281 25.09868 11542 ft 337 kts 336°
2026-04-16 22:23 60.56474 25.07687 11803 ft 363 kts 335°
2026-04-16 22:24 60.64852 24.99370 14763 ft 383 kts 336°
2026-04-16 22:24 60.74684 24.89783 18162 ft 399 kts 337°
2026-04-16 22:24 60.80754 24.83923 19821 ft 409 kts 342°
2026-04-16 22:24 60.83538 24.82796 20413 ft 410 kts
2026-04-16 22:25 60.89268 24.83920 21822 ft 415 kts
2026-04-16 22:25 61.00982 24.86942 24138 ft 432 kts
2026-04-16 22:25 61.12847 24.89786 26285 ft 438 kts
2026-04-16 22:25 61.21661 24.91885 27667 ft 444 kts
2026-04-16 22:26 61.31754 24.94335 28987 ft 451 kts
2026-04-16 22:26 61.44106 24.97356 31043 ft 443 kts
2026-04-16 22:26 61.56342 25.00371 32661 ft 443 kts
2026-04-16 22:26 61.61619 25.01590 33447 ft 440 kts
2026-04-16 22:27 61.68662 25.01278 34360 ft 439 kts 358°
2026-04-16 22:27 61.80926 24.99894 35395 ft 444 kts 358°
2026-04-16 22:27 61.93260 24.98672 36526 ft 444 kts 358°
2026-04-16 22:27 62.05662 24.97559 37526 ft 447 kts 358°
2026-04-16 22:28 62.18071 24.96420 38693 ft 444 kts 357°
2026-04-16 22:28 62.21677 24.96084 38922 ft 446 kts 357°
2026-04-16 22:28 62.24782 24.95793 39073 ft 447 kts 357°
2026-04-16 22:28 62.27893 24.95501 39252 ft 447 kts 357°
2026-04-16 22:29 62.30998 24.95210 39459 ft 447 kts 357°
2026-04-16 22:29 62.34097 24.94918 39677 ft 446 kts 357°
2026-04-16 22:29 62.37202 24.94626 39854 ft 447 kts 357°
2026-04-16 22:29 62.40309 24.94333 40021 ft 447 kts 357°
2026-04-16 22:30 62.46252 24.93770 40341 ft 447 kts 357°
2026-04-16 22:30 62.49369 24.93474 40309 ft 451 kts 357°
2026-04-16 22:30 62.70369 24.91467 40264 ft 449 kts 357°
2026-04-16 22:31 62.95250 24.89050 40252 ft 446 kts 357°
2026-04-16 22:31 63.19987 24.86606 40288 ft 444 kts 356°
2026-04-16 22:32 63.44604 24.84131 40271 ft 442 kts 356°
2026-04-16 22:32 63.69306 24.81604 40290 ft 444 kts 356°
2026-04-16 22:33 63.94061 24.79028 40302 ft 447 kts 356°
2026-04-16 22:33 64.18962 24.76390 40336 ft 447 kts 357°
2026-04-16 22:34 64.43816 24.73710 40287 ft 446 kts 357°
2026-04-16 22:34 64.68478 24.71001 40292 ft 442 kts 357°
2026-04-16 22:35 64.92776 24.68285 40320 ft 438 kts 356°
2026-04-16 22:35 65.17104 24.65514 40307 ft 437 kts 356°
2026-04-16 22:36 65.41322 24.62705 40309 ft 435 kts 356°
2026-04-16 22:36 65.64190 24.60004 40330 ft 434 kts 356°
2026-04-16 22:37 65.88284 24.57107 40308 ft 432 kts 356°
2026-04-16 22:37 66.12303 24.54164 40336 ft 432 kts 356°
2026-04-16 22:38 66.36334 24.51163 40349 ft 432 kts 356°
2026-04-16 22:38 66.60347 24.48106 40326 ft 432 kts 356°
2026-04-16 22:39 66.84305 24.44997 40348 ft 431 kts 356°
2026-04-16 22:39 67.08249 24.41828 40363 ft 430 kts 355°
2026-04-16 22:40 67.32144 24.38601 40340 ft 429 kts 355°
2026-04-16 22:40 67.40292 24.36205 40354 ft 428 kts 343°
2026-04-16 22:41 67.61620 24.18720 40357 ft 427 kts 342°
2026-04-16 22:41 67.84277 24.00053 40364 ft 426 kts 342°
2026-04-16 22:42 68.06895 23.81021 40375 ft 426 kts 342°
2026-04-16 22:42 68.29484 23.61620 40367 ft 426 kts 341°
2026-04-16 22:43 68.52028 23.41850 40335 ft 426 kts 341°
2026-04-16 22:43 68.74566 23.21664 40385 ft 426 kts 341°
2026-04-16 22:44 68.96892 23.01241 40378 ft 426 kts 341°
2026-04-16 22:44 69.08086 22.90836 38089 ft 418 kts 341°
2026-04-16 22:44 69.18707 22.80846 34630 ft 387 kts 343°
2026-04-16 22:45 69.23264 22.76530 32985 ft 373 kts 343°
2026-04-16 22:45 69.25731 22.74190 32053 ft 376 kts 342°
2026-04-16 22:45 69.28239 22.71807 31132 ft 387 kts 342°
2026-04-16 22:45 69.33733 22.66567 28748 ft 412 kts 341°
2026-04-16 22:46 69.39178 22.61335 26399 ft 400 kts 341°
2026-04-16 22:46 69.41775 22.58827 25430 ft 388 kts 341°
2026-04-16 22:46 69.44296 22.56387 24553 ft 379 kts 341°
2026-04-16 22:46 69.46807 22.53951 23625 ft 388 kts 341°
2026-04-16 22:47 69.52571 22.48344 21304 ft 386 kts 341°
2026-04-16 22:47 69.55435 22.45543 20613 ft 359 kts 341°
2026-04-16 22:47 69.57793 22.43232 19643 ft 356 kts 341°
2026-04-16 22:47 69.60134 22.40931 18806 ft 358 kts 341°
2026-04-16 22:48 69.63655 22.37462 17375 ft 378 kts 341°
2026-04-16 22:48 69.68356 22.32812 15633 ft 350 kts 341°
2026-04-16 22:48 69.70635 22.30551 14795 ft 343 kts 341°
2026-04-16 22:48 69.72892 22.28306 13944 ft 346 kts 341°
2026-04-16 22:49 69.75534 22.25672 12875 ft 370 kts 341°
2026-04-16 22:49 69.77997 22.24290 12452 ft 347 kts 358°
2026-04-16 22:49 69.80339 22.24867 11970 ft 333 kts 12°
2026-04-16 22:49 69.85944 22.30422 10888 ft 299 kts 19°
2026-04-16 22:50 69.88017 22.32705 10566 ft 286 kts 19°
2026-04-16 22:50 69.89855 22.34720 10312 ft 276 kts 19°
2026-04-16 22:50 69.95302 22.40591 9238 ft 259 kts 19°
2026-04-16 22:50 70.01923 22.47655 7954 ft 249 kts 19°
2026-04-16 22:51 70.04078 22.49963 7472 ft 253 kts 19°
2026-04-16 22:51 70.05718 22.52000 6963 ft 257 kts 32°
2026-04-16 22:51 70.06988 22.55617 6614 ft 254 kts 49°
2026-04-16 22:51 70.08098 22.59596 6259 ft 250 kts 50°
2026-04-16 22:52 70.09187 22.63515 5955 ft 246 kts 50°
2026-04-16 22:52 70.10225 22.67448 5649 ft 243 kts 59°
2026-04-16 22:52 70.10565 22.72189 5344 ft 239 kts 98°
2026-04-16 22:52 70.10019 22.76677 5102 ft 228 kts 113°
2026-04-16 22:53 70.09348 22.80724 4997 ft 213 kts 117°
2026-04-16 22:53 70.08627 22.84416 4886 ft 206 kts 120°
2026-04-16 22:53 70.07900 22.87910 4695 ft 199 kts 120°
2026-04-16 22:53 70.07175 22.91353 4368 ft 198 kts 120°
2026-04-16 22:54 70.06461 22.94746 4034 ft 198 kts 121°
2026-04-16 22:54 70.05739 22.98181 3706 ft 198 kts 121°
2026-04-16 22:54 70.05012 23.01649 3352 ft 197 kts 121°
2026-04-16 22:54 70.04320 23.04948 2990 ft 187 kts 121°
2026-04-16 22:55 70.03658 23.08111 2628 ft 178 kts 121°
2026-04-16 22:55 70.03028 23.11127 2303 ft 171 kts 122°
2026-04-16 22:55 70.02406 23.14099 1993 ft 172 kts 122°
2026-04-16 22:55 70.01790 23.17050 1716 ft 165 kts 122°
2026-04-16 22:56 70.01218 23.19795 1498 ft 150 kts 122°
2026-04-16 22:56 70.00707 23.22248 1262 ft 132 kts 122°
2026-04-16 22:56 70.00247 23.24452 1050 ft 124 kts 121°
2026-04-16 22:56 69.99800 23.26605 838 ft 124 kts 121°
2026-04-16 22:57 69.99354 23.28749 659 ft 124 kts 121°
2026-04-16 22:57 69.98906 23.30898 425 ft 123 kts 121°
2026-04-16 22:57 69.98465 23.33035 207 ft 123 kts 121°
2026-04-16 22:57 69.98021 23.35149 35 ft 119 kts 121°
2026-04-16 22:58 69.97724 23.36632 34 ft 55 kts 116°
2026-04-16 22:58 69.97634 23.37096 34 ft 7 kts 155°
2026-04-16 22:58 69.97615 23.37075 34 ft 1 kts 260°
2026-04-16 22:58 69.97638 23.36984 34 ft 14 kts 306°
2026-04-16 22:59 69.97717 23.36630 34 ft 14 kts 300°
2026-04-16 22:59 69.97697 23.36362 34 ft 23 kts 240°
2026-04-16 22:59 69.97678 23.35983 33 ft 15 kts 291°
2026-04-16 22:59 69.97711 23.35801 34 ft 3 kts 293°
2026-04-16 23:00 69.97709 23.35743 33 ft 3 kts 257°
2026-04-16 23:00 69.97718 23.35663 32 ft 9 kts 288°
2026-04-16 23:00 69.97702 23.35479 33 ft 2 kts 239°
2026-04-16 23:00 69.97702 23.35478 33 ft 0 kts 239°